Location: Innsbruck
(47.2657°N, 11.3914°E)
Time: 09:05:27
(UTC+02:00)

X-37B - Visible Passes

Search period start: 23 September 2021 00:00
Search period end: 03 October 2021 00:00
Orbit: 381 x 393 km, 45.0° (Epoch: 29 August)

Date Brightness Start Highest point End Pass type
(mag) Time Alt. Az. Time Alt. Az. Time Alt. Az.
23 Sep 2.1 05:59:30 13° SW 06:01:52 28° SSE 06:04:40 10° E visible
24 Sep 2.7 05:03:52 19° SSE 05:03:52 19° SSE 05:06:03 10° ESE visible
25 Sep 1.5 05:40:29 28° SSW 05:41:36 39° SSE 05:44:36 10° E visible
26 Sep 3.0 04:44:46 20° ESE 04:44:46 20° ESE 04:46:08 10° E visible
26 Sep 0.9 06:17:04 13° WSW 06:19:41 56° S 06:22:49 10° E visible
27 Sep 1.0 05:21:20 49° S 05:21:23 49° S 05:24:27 10° E visible
28 Sep 3.7 04:25:37 13° E 04:25:37 13° E 04:26:04 10° E visible
28 Sep 0.8 05:57:54 25° WSW 05:59:30 57° S 06:02:37 10° ESE visible
29 Sep 1.9 05:02:12 35° ESE 05:02:12 35° ESE 05:04:17 10° E visible
29 Sep 1.3 06:34:37 10° W 06:37:36 40° SSW 06:40:36 10° ESE visible
30 Sep 0.9 05:38:49 45° SW 05:39:18 50° S 05:42:22 10° ESE visible
01 Oct 3.3 04:43:12 17° ESE 04:43:12 17° ESE 04:44:04 10° ESE visible
01 Oct 1.7 06:15:30 17° WSW 06:17:20 29° SSW 06:20:08 10° SE visible
02 Oct 1.9 05:19:58 31° SSE 05:19:58 31° SSE 05:22:04 10° SE visible
